[[{"header":{"parameterUnit":"m.s-1","parameterCategory":1,"la1":30.2991,"la2":30.254,"lo1":-89.0895,"lo2":-89.0444,"dx":0.0017,"dy":0.0017,"nx":28,"ny":28,"refTime":"2022-11-18T15:00:00:Z","depth":0,"parameterNumber":2,"parameterNumberName":"U-component_of_WINDS"},"data":[0,0,0,0,0,0,0,0,0,0,0,0,0,0,0,0,0,0,0,0,0,0,0,0,0,0,0,0,0,0,0,0,0,0,0,0,0,0,0,0,0,0,0,0,0,0,0,0,0,0,0,0,0,0,0,0,0,0,-3.4888,-3.489,0,-3.5008,-3.501,-3.5011,-3.4891,-3.4887,-3.4882,-3.4878,-3.5002,-3.501,-3.5018,0,0,0,0,0,0,0,0,0,0,0,0,0,-3.4555,-3.4562,-3.4888,-3.489,-3.4891,-3.5008,-3.501,-3.5011,-3.4892,-3.4886,-3.4881,-3.4875,-3.5,-3.5009,-3.5018,0,0,0,0,0,0,0,0,0,0,0,0,0,-3.469,-3.4564,-3.4888,-3.4846,-3.4843,-3.5008,-3.501,-3.5012,-3.4893,-3.4886,-3.4879,-3.4873,-3.4997,-3.5008,-3.502,-3.5232,0,0,-3.5055,-3.506,0,0,0,0,0,0,0,0,-3.4683,-3.4703,-3.485,-3.4849,-3.4846,-3.4928,-3.4938,-3.5086,-3.4895,-3.4875,-3.4877,-3.4869,-3.4983,-3.4996,-3.5034,-3.5238,-3.5244,-3.5056,-3.5063,-3.5068,-3.5071,0,0,0,0,0,0,0,-3.4674,-3.4697,-3.4936,-3.4853,-3.485,-3.4821,-3.4832,-3.4966,-3.4967,-3.4876,-3.4867,-3.4883,-3.4981,-3.5023,-3.5036,-3.5245,-3.5056,-3.5066,-3.5073,-3.5078,-3.5628,-3.5635,0,0,0,0,0,0,-3.4669,-3.469,-3.4932,-3.4939,-3.4745,-3.4832,-3.4845,-3.4909,-3.4965,-3.4967,-3.4889,-3.4877,-3.5007,-3.5022,-3.504,-3.5291,-3.5068,-3.5079,-3.5085,-3.562,-3.5629,-3.5638,0,0,0,0,0,0,-3.4662,-3.4691,-3.4927,-3.4812,-3.484,-3.4846,-3.4918,-3.4915,-3.4957,-3.4975,-3.4975,-3.4932,-3.5002,-3.5023,-3.5185,-3.5294,-3.5084,-3.5094,-3.5611,-3.5623,-3.5634,-3.5797,0,0,0,0,0,0,-3.4653,-3.469,-3.4771,-3.4815,-3.4847,-3.5071,-3.4925,-3.4922,-3.4977,-3.4962,-3.5015,-3.5017,-3.4998,-3.5168,-3.5196,-3.5306,-3.5103,-3.5601,-3.5616,-3.563,-3.5782,-3.5813,-3.5839,0,0,0,0,0,-3.4641,-3.4813,-3.4776,-3.4806,-3.4948,-3.5077,-3.5095,-3.5069,-3.4986,-3.5067,-3.5079,-3.5016,-3.5277,-3.5186,-3.5216,-3.5331,-3.5594,-3.5612,-3.5629,-3.5769,-3.5807,-3.5838,0,0,0,0,0,0,-3.4784,-3.4818,-3.4777,-3.4968,-3.5021,-3.5057,-3.5159,-3.511,-3.5187,-3.5171,-3.5135,-3.5148,-3.5318,-3.5341,-3.5238,-3.5539,-3.5422,-3.5446,-3.5518,-3.5554,-3.5582,-3.5574,-3.5113,0,0,0,0,0,-3.4837,-3.4939,-3.4963,-3.513,-3.5158,-3.5154,-3.521,-3.5184,-3.5237,-3.5259,-3.5282,-3.5337,-3.543,-3.5493,-3.5581,-3.5784,-3.5793,-3.5878,-3.5906,-3.593,-3.5952,-3.6059,-3.6096,-3.5694,-3.5694,-3.5694,0,0,-3.4949,-3.498,-3.5047,-3.5159,-3.5196,-3.5302,-3.5174,-3.5292,-3.537,-3.5277,-3.543,-3.5449,-3.5507,-3.569,-3.5771,-3.5714,-3.6064,-3.5952,-3.597,-3.5979,-3.608,-3.6118,-3.6152,-3.5706,-3.5704,-3.5702,0,0,-3.5206,-3.5241,-3.5382,-3.5422,-3.5479,-3.5475,-3.5509,-3.5553,-3.5561,-3.5714,-3.5646,-3.5738,-3.5901,-3.5945,-3.5988,-3.6259,-3.6203,-3.6288,-3.6438,-3.6543,-3.6575,-3.6602,-3.6698,-3.6733,-3.631,-3.631,-3.631,0,-3.5338,-3.5495,-3.5461,-3.5584,-3.5634,-3.5553,-3.5696,-3.5736,-3.582,-3.5857,-3.579,-3.5992,-3.6025,-3.6216,-3.6281,-3.632,-3.6357,-3.6283,-3.6573,-3.66,-3.6626,-3.6717,-3.6753,-3.632,-3.6319,-3.6318,-3.6317,0,-3.5654,-3.5763,-3.587,-3.5952,-3.6014,-3.6146,-3.6132,-3.62,-3.6168,-3.6171,-3.6326,-3.6363,-3.6456,-3.6499,-3.647,-3.6685,-3.6647,-3.6578,-3.646,-3.6675,-3.6759,-3.6794,-3.6334,-3.6331,-3.6328,-3.6325,0,0,-3.6007,-3.6065,-3.6106,-3.614,-3.6197,-3.6281,-3.6408,-3.6498,-3.6556,-3.6616,-3.6721,-3.6859,-3.6794,-3.6844,-3.6819,-3.6911,-3.7121,-3.6829,-3.683,-3.6882,-3.7359,-3.7411,-3.7452,-3.7084,-3.709,-3.7096,-3.7354,0,-3.6265,-3.6486,-3.6458,-3.6669,-3.6769,-3.6692,-3.6803,-3.6849,-3.6854,-3.694,-3.6945,-3.7043,-3.6951,-3.698,-3.7067,-3.7077,-3.7217,-3.7058,-3.7181,-3.7186,-3.717,-3.7497,-3.7553,-3.7795,-3.7387,-3.7392,-3.7397,0,-3.6597,-3.6667,-3.6888,-3.6927,-3.6968,-3.7068,-3.7146,-3.7229,-3.7279,-3.7276,-3.733,-3.7288,-3.7414,-3.7293,-3.7467,-3.736,-3.7408,-3.742,-3.7429,-3.744,-3.7305,-3.7516,-3.7871,-3.7908,-3.7449,-3.7444,-3.7441,0,-3.6831,-3.6981,-3.7132,-3.7164,-3.7214,-3.7286,-3.7309,-3.7352,-3.7407,-3.7476,-3.7511,-3.7594,-3.7639,-3.7704,-3.7685,-3.7599,-3.7862,-3.774,-3.7863,-3.7864,-3.7923,-3.7919,-3.8291,-3.7954,-3.7954,-3.7953,-3.7952,0,-3.7123,-3.7262,-3.7238,-3.7331,-3.7482,-3.7448,-3.76,-3.7614,-3.7652,-3.7746,-3.7685,-3.7774,-3.7743,-3.7831,-3.7816,-3.7961,-3.7983,-3.7983,-3.7978,-3.7989,-3.7989,-3.8021,-3.8003,-3.7963,-3.7961,-3.7959,-3.7957,0,-3.7411,-3.7401,-3.756,-3.7593,-3.7604,-3.7715,-3.7742,-3.7829,-3.7828,-3.7948,-3.7974,-3.7973,-3.8072,-3.8059,-3.8171,-3.8161,-3.8341,-3.8315,-3.8324,-3.8318,-3.8442,-3.843,-3.8847,-3.8899,-3.8529,-3.8533,-3.8536,0,-3.7599,-3.7703,-3.7746,-3.7803,-3.7832,-3.7927,-3.7981,-3.7951,-3.8011,-3.8074,-3.8153,-3.8247,-3.832,-3.8483,-3.8492,-3.8576,-3.8552,-3.8692,-3.8564,-3.8571,-3.8553,-3.8547,-3.8556,-3.8717,-3.8722,-3.8725,-3.8728,0,-3.7931,-3.792,-3.8001,-3.8081,-3.8148,-3.8209,-3.8264,-3.8315,-3.829,-3.836,-3.846,-3.8517,-3.8629,-3.8723,-3.8801,-3.8825,-3.8773,-3.8768,-3.88,-3.8813,-3.8813,-3.8814,-3.8393,-3.8758,-3.8755,-3.8753,-3.8751,-3.875,-3.8174,-3.8262,-3.8305,-3.8397,-3.8435,-3.8487,-3.857,-3.8579,-3.8662,-3.875,-3.8727,-3.884,-3.8885,-3.8985,-3.9017,-3.9105,-3.9053,-3.9101,-3.9113,-3.9126,-3.914,-3.8799,-3.9119,-3.9118,-3.9117,-3.9117,-3.9116,0,-3.8503,-3.8526,-3.8611,-3.8689,-3.8761,-3.8704,-3.8761,-3.8825,-3.8925,-3.8972,-3.9044,-3.9158,-3.9248,-3.9263,-3.9348,-3.9415,-3.9393,-3.9438,-3.9433,-3.9439,-3.9181,-3.9144,-3.9455,-3.9455,-3.9455,-3.9455,-3.9454,-3.9454,-3.8682,-3.8828,-3.8822,-3.8984,-3.9006,-3.9116,-3.9154,-3.9201,-3.9237,-3.9367,-3.9441,-3.945,-3.9483,-3.957,-3.9649,-3.9651,-3.9685,-3.974,-3.9732,-3.9491,-3.9458,-3.9425,-3.939,-3.9747,-3.9748,-3.9982,-3.9985,-3.9986]},{"header":{"parameterUnit":"m.s-1","parameterCategory":1,"la1":30.2991,"la2":30.254,"lo1":-89.0895,"lo2":-89.0444,"dx":0.0017,"dy":0.0017,"nx":28,"ny":28,"refTime":"2022-11-18T15:00:00:Z","depth":0,"parameterNumber":3,"parameterNumberName":"V-component_of_WINDS"},"data":[0,0,0,0,0,0,0,0,0,0,0,0,0,0,0,0,0,0,0,0,0,0,0,0,0,0,0,0,0,0,0,0,0,0,0,0,0,0,0,0,0,0,0,0,0,0,0,0,0,0,0,0,0,0,0,0,0,0,-4.3531,-4.3532,0,-4.3617,-4.3618,-4.3619,-4.357,-4.3567,-4.3565,-4.3563,-4.3648,-4.3653,-4.3657,0,0,0,0,0,0,0,0,0,0,0,0,0,-4.332,-4.3324,-4.3531,-4.3532,-4.3533,-4.3617,-4.3618,-4.3619,-4.357,-4.3567,-4.3564,-4.3562,-4.3647,-4.3652,-4.3658,0,0,0,0,0,0,0,0,0,0,0,0,0,-4.3409,-4.3325,-4.3531,-4.3519,-4.3519,-4.3617,-4.3618,-4.362,-4.3571,-4.3567,-4.3564,-4.356,-4.3645,-4.3652,-4.3658,-4.3772,0,0,-4.3679,-4.3682,0,0,0,0,0,0,0,0,-4.3404,-4.3417,-4.352,-4.352,-4.352,-4.3579,-4.3575,-4.3671,-4.3572,-4.3551,-4.3563,-4.3558,-4.3628,-4.3636,-4.366,-4.3776,-4.378,-4.368,-4.3684,-4.3687,-4.3688,0,0,0,0,0,0,0,-4.3398,-4.3413,-4.3565,-4.3521,-4.3521,-4.3508,-4.3516,-4.3593,-4.3609,-4.3553,-4.3549,-4.356,-4.3627,-4.3654,-4.3662,-4.3781,-4.3679,-4.3685,-4.369,-4.3692,-4.3992,-4.3996,0,0,0,0,0,0,-4.3393,-4.3408,-4.3562,-4.3568,-4.3452,-4.3514,-4.3524,-4.3564,-4.3608,-4.3611,-4.3563,-4.3558,-4.3644,-4.3654,-4.3664,-4.3799,-4.3687,-4.3693,-4.3697,-4.3988,-4.3993,-4.3997,0,0,0,0,0,0,-4.3389,-4.3408,-4.3559,-4.3487,-4.3505,-4.3522,-4.3567,-4.3567,-4.3593,-4.3616,-4.3618,-4.3587,-4.3641,-4.3655,-4.3745,-4.3801,-4.3696,-4.3702,-4.3983,-4.3989,-4.3995,-4.407,0,0,0,0,0,0,-4.3383,-4.3406,-4.3451,-4.3489,-4.3509,-4.364,-4.357,-4.3572,-4.3606,-4.3599,-4.3639,-4.3642,-4.3639,-4.3735,-4.3752,-4.3808,-4.3707,-4.3978,-4.3986,-4.3993,-4.4062,-4.4077,-4.409,0,0,0,0,0,-4.3376,-4.3469,-4.3454,-4.3473,-4.3566,-4.3644,-4.3655,-4.3651,-4.361,-4.3654,-4.3668,-4.3641,-4.3792,-4.3745,-4.3763,-4.3823,-4.3975,-4.3984,-4.3992,-4.4056,-4.4074,-4.409,0,0,0,0,0,0,-4.3437,-4.3474,-4.3457,-4.3566,-4.3602,-4.3635,-4.3691,-4.3671,-4.3719,-4.3711,-4.3703,-4.3712,-4.3806,-4.3823,-4.377,-4.3934,-4.3877,-4.389,-4.3919,-4.3937,-4.395,-4.3944,-4.3713,0,0,0,0,0,-4.3464,-4.3525,-4.3553,-4.3645,-4.3665,-4.3675,-4.3708,-4.3702,-4.3739,-4.3754,-4.3774,-4.381,-4.3865,-4.3902,-4.3954,-4.4064,-4.4071,-4.4114,-4.4128,-4.4139,-4.415,-4.4207,-4.4225,-4.4026,-4.4026,-4.4025,0,0,-4.3519,-4.3546,-4.3585,-4.3659,-4.3686,-4.3747,-4.3688,-4.3757,-4.3801,-4.3764,-4.385,-4.3866,-4.3905,-4.4005,-4.405,-4.4023,-4.4206,-4.415,-4.4159,-4.4164,-4.4218,-4.4236,-4.4253,-4.4032,-4.4031,-4.403,0,0,-4.365,-4.3678,-4.3757,-4.3785,-4.3827,-4.3833,-4.3851,-4.3887,-4.3897,-4.3983,-4.3955,-4.4008,-4.4104,-4.4132,-4.4159,-4.4298,-4.4274,-4.4315,-4.4388,-4.4444,-4.4459,-4.4473,-4.4521,-4.4538,-4.4326,-4.4327,-4.4327,0,-4.3712,-4.3806,-4.38,-4.387,-4.3902,-4.387,-4.3949,-4.3976,-4.4033,-4.4055,-4.4023,-4.4141,-4.4166,-4.4271,-4.4304,-4.4328,-4.4347,-4.4311,-4.4458,-4.4472,-4.4484,-4.4529,-4.4548,-4.4331,-4.4331,-4.433,-4.433,0,-4.3879,-4.3944,-4.4003,-4.4058,-4.4097,-4.4171,-4.4174,-4.4213,-4.4203,-4.4211,-4.4298,-4.4326,-4.4382,-4.4406,-4.4397,-4.4509,-4.4491,-4.4459,-4.4401,-4.4508,-4.455,-4.4568,-4.4338,-4.4336,-4.4335,-4.4334,0,0,-4.4053,-4.4103,-4.4124,-4.4148,-4.4191,-4.424,-4.4311,-4.4366,-4.4399,-4.4438,-4.4496,-4.4577,-4.4547,-4.4578,-4.4571,-4.462,-4.4725,-4.4581,-4.4582,-4.4605,-4.4847,-4.487,-4.4891,-4.4709,-4.4712,-4.4715,-4.4843,0,-4.4186,-4.4312,-4.4307,-4.4423,-4.4481,-4.4451,-4.4512,-4.4544,-4.4553,-4.4603,-4.4612,-4.4669,-4.4626,-4.4644,-4.4691,-4.4702,-4.4773,-4.4693,-4.4761,-4.4764,-4.4751,-4.4913,-4.4938,-4.5058,-4.486,-4.4863,-4.4865,0,-4.4358,-4.4403,-4.4525,-4.4556,-4.458,-4.4636,-4.4685,-4.4733,-4.4767,-4.477,-4.4803,-4.4788,-4.4858,-4.4799,-4.4894,-4.4839,-4.4866,-4.4876,-4.4881,-4.4886,-4.482,-4.4921,-4.5097,-4.5114,-4.4891,-4.4889,-4.4887,0,-4.447,-4.4561,-4.4645,-4.4666,-4.4706,-4.4745,-4.4763,-4.4794,-4.4826,-4.4868,-4.4889,-4.4939,-4.4966,-4.5003,-4.5001,-4.4959,-4.5096,-4.5038,-4.5099,-4.5099,-4.5129,-4.5127,-4.531,-4.5149,-4.5148,-4.5148,-4.5148,0,-4.4618,-4.4693,-4.4696,-4.4747,-4.483,-4.4823,-4.4904,-4.4918,-4.4945,-4.4997,-4.4974,-4.5023,-4.5018,-4.5067,-4.5065,-4.5142,-4.5155,-4.5158,-4.5156,-4.5159,-4.5159,-4.5176,-4.5168,-4.5153,-4.5152,-4.5151,-4.515,0,-4.4757,-4.4762,-4.4851,-4.4881,-4.489,-4.4949,-4.4973,-4.5021,-4.5028,-4.5094,-4.5109,-4.5118,-4.5175,-4.5176,-4.524,-4.5239,-4.5333,-4.5323,-4.5322,-4.5319,-4.5379,-4.5373,-4.5579,-4.5605,-4.5428,-4.543,-4.5432,0,-4.4851,-4.4908,-4.4943,-4.4977,-4.4997,-4.5052,-4.5084,-4.5078,-4.5113,-4.5155,-4.5197,-4.5251,-4.5294,-4.5385,-4.5396,-4.5445,-4.5435,-4.5503,-4.5442,-4.5442,-4.5433,-4.543,-4.5434,-4.5515,-4.5517,-4.5519,-4.552,0,-4.5016,-4.5015,-4.5063,-4.5112,-4.5152,-4.519,-4.5225,-4.5254,-4.5251,-4.5291,-4.5348,-4.5381,-4.5446,-4.5499,-4.5546,-4.5562,-4.5541,-4.5539,-4.5556,-4.5559,-4.5555,-4.5556,-4.5353,-4.5535,-4.5533,-4.5532,-4.5531,-4.5531,-4.5134,-4.5183,-4.5214,-4.5268,-4.5294,-4.5326,-4.5372,-4.5384,-4.5431,-4.5484,-4.5477,-4.554,-4.557,-4.563,-4.5651,-4.5699,-4.5674,-4.5699,-4.5705,-4.571,-4.5716,-4.5549,-4.5707,-4.5707,-4.5706,-4.5706,-4.5706,0,-4.5296,-4.5315,-4.5364,-4.5414,-4.5456,-4.5432,-4.5468,-4.5505,-4.5561,-4.5591,-4.5633,-4.5697,-4.5748,-4.5763,-4.5811,-4.5846,-4.5837,-4.5859,-4.5856,-4.5859,-4.5736,-4.5716,-4.5865,-4.5865,-4.5865,-4.5865,-4.5865,-4.5865,-4.5386,-4.5465,-4.5468,-4.5559,-4.5576,-4.5638,-4.5661,-4.569,-4.5713,-4.5786,-4.5828,-4.5838,-4.5861,-4.591,-4.5955,-4.5958,-4.5976,-4.6002,-4.6001,-4.5885,-4.5869,-4.5853,-4.5834,-4.6006,-4.6006,-4.612,-4.6121,-4.6122]}]]